Location: Bern�tre
(50.1974°N, 2.0915°E)
Time: 09:28:55
(UTC+00:00)

Okean 2 - Pass Details

Date: 18 September 2020
Orbit: 559 x 577 km, 82.5° (Epoch: 27 October)

Event Time Altitude Azimuth Distance (km) Brightness Sun altitude
Rises 18:26:59 0° 350° (N) 2,807 7.2 -5.5°
Reaches altitude 10° 18:29:11 10° 351° (N) 1,902 6.3 -5.8°
Maximum altitude 18:33:24 82° 79° (E) 589 3.4 -6.5°
Drops below altitude 10° 18:37:33 10° 168° (SSE) 1,880 5.8 -7.1°
Sets 18:39:43 0° 170° (S) 2,771 6.7 -7.5°
